RH
9 9 9 9 9 9 9 9 9 8 8 8 8 9 10 11 10 9 8 9 9 9 9 9 9 9 8 8 8 8 7 6 5 5 5 4 5 6 11 16 16 19 27 31 32 35 38 37 34 33 33 36 39 43 47 48 48 46 44 45 45 45 44 43 43 43 44 45 49 48 43 44 44 41 42 40 38 37 35 33 33 35 32 31 34 33 34 36
10 9 9 9 9 9 9 9 9 8 8 8 8 8 9 10 11 10 8 8 9 9 9 9 9 9 8 8 8 8 7 6 5 5 4 4 4 4 8 14 15 17 26 31 31 34 37 36 34 32 33 35 37 41 44 46 46 44 45 46 45 45 43 41 41 41 42 45 48 48 46 47 47 45 42 40 38 36 34 33 31 33 32 31 32 33 35 36
11 9 9 9 9 9 8 8 9 8 8 8 8 8 8 9 10 10 9 8 8 9 9 9 9 9 8 8 8 8 7 6 5 4 4 4 4 4 6 11 14 16 24 30 31 32 34 34 32 32 33 34 35 38 40 41 44 44 44 45 45 44 41 40 38 39 42 45 47 47 47 48 50 48 42 41 41 37 36 34 32 33 34 32 31 33 36 37
12 11 9 8 8 8 8 8 8 8 8 8 8 8 8 8 9 10 10 9 8 8 9 9 9 9 8 9 8 8 8 6 5 4 5 5 4 5 5 8 12 15 22 28 28 30 32 31 31 31 32 33 34 36 38 38 40 43 43 44 44 41 39 40 37 40 43 43 45 44 45 48 48 47 43 41 42 39 34 30 28 30 32 31 31 33 35 37
12 12 11 9 8 8 8 8 8 8 8 8 8 8 8 8 8 9 10 9 8 8 9 9 9 9 8 8 8 8 8 6 5 5 6 6 5 5 6 7 11 14 20 26 27 28 30 30 30 30 30 31 33 36 36 36 37 40 41 42 41 37 37 39 38 40 43 42 43 42 43 45 43 47 48 42 39 35 28 25 23 24 28 30 31 33 36 37
12 12 12 11 10 9 8 7 7 8 8 8 8 8 8 8 8 8 9 10 9 8 8 9 9 9 8 8 8 8 8 6 6 6 6 5 5 5 5 6 9 13 18 23 26 28 28 29 29 29 31 32 34 37 36 36 37 38 39 38 37 35 34 36 36 39 40 40 40 40 42 42 40 43 47 45 39 31 24 23 23 22 24 28 31 34 35 36
12 12 12 11 11 10 9 8 7 7 8 8 8 8 8 8 8 8 8 9 9 9 8 8 9 9 8 8 8 8 8 7 6 5 5 5 4 4 4 5 8 12 15 20 25 27 27 28 28 29 32 33 35 37 36 36 36 36 36 33 32 33 33 32 34 38 39 39 38 38 41 41 39 39 40 44 43 37 30 25 24 24 24 27 31 34 35 35
13 12 12 11 11 11 10 9 8 7 7 8 8 8 8 8 8 8 7 8 9 9 8 8 8 8 8 7 7 8 8 7 5 5 6 5 4 4 4 4 6 10 14 19 24 27 26 27 28 29 32 34 35 36 36 35 34 34 31 28 30 32 31 30 33 38 38 37 37 38 40 40 40 39 38 41 43 41 37 30 26 25 25 27 30 33 34 34
14 13 13 12 12 11 11 11 10 9 8 8 8 8 8 7 7 7 7 7 8 8 8 8 8 8 8 7 7 8 8 6 5 5 6 6 5 4 4 4 6 9 14 19 22 25 26 27 28 29 32 34 34 35 36 35 33 31 28 27 30 32 30 29 33 38 37 36 35 37 40 39 40 40 38 38 40 42 40 35 30 26 26 28 28 30 31 31
14 14 14 13 12 12 11 11 11 10 9 8 8 8 8 8 8 8 7 7 7 8 8 8 8 7 7 7 8 9 7 6 5 5 6 7 6 4 3 3 5 9 14 18 21 24 26 26 28 28 31 33 33 33 35 34 31 28 28 28 30 31 29 30 34 37 37 35 34 37 40 40 40 41 40 38 38 41 42 40 35 28 26 27 28 29 29 28
13 14 14 13 13 12 12 11 11 11 11 10 9 9 8 8 8 8 7 7 7 7 8 8 8 7 7 7 8 8 7 6 6 6 5 7 6 5 4 4 6 9 13 17 21 24 26 26 28 29 30 32 32 33 33 30 28 28 29 31 31 30 31 33 35 36 34 35 35 37 39 39 41 43 41 38 38 39 41 43 40 32 28 28 28 29 29 27
13 13 13 14 13 13 12 12 11 11 11 10 10 10 9 9 9 8 8 7 7 7 7 7 7 8 8 8 8 8 7 7 7 6 5 6 6 5 4 4 5 8 11 17 21 23 25 26 28 29 29 30 31 33 32 28 27 30 30 33 33 33 35 36 38 38 35 36 36 36 39 40 40 41 40 38 38 38 39 43 43 37 31 31 30 29 29 28
12 12 12 13 13 13 13 12 11 11 11 11 10 10 10 9 9 9 8 7 7 7 7 7 8 9 10 9 8 7 7 7 7 6 5 6 6 6 5 4 6 8 11 15 19 20 22 24 27 27 26 28 30 32 30 25 27 31 31 33 34 36 39 38 40 42 41 40 37 35 39 41 38 38 38 38 39 36 37 41 42 38 34 32 32 31 29 27
11 11 11 12 12 12 12 12 11 11 11 11 10 10 10 9 10 9 9 8 7 7 8 8 9 10 11 9 7 8 8 6 6 6 6 6 6 6 5 5 6 8 11 13 15 16 18 21 24 24 25 28 29 30 28 25 27 31 32 34 36 39 41 38 40 43 43 43 39 37 41 42 40 39 39 40 40 36 36 39 41 38 34 33 33 32 30 27
10 10 10 10 11 11 11 12 12 12 11 11 11 10 10 9 9 9 10 10 10 9 8 9 10 11 12 10 8 8 8 6 6 7 7 7 6 6 6 6 7 9 11 13 14 15 16 19 22 23 25 26 28 29 28 25 28 33 35 37 38 39 40 39 40 41 41 41 39 39 44 46 43 43 43 43 42 39 38 39 40 39 36 34 33 33 32 28
10 10 10 10 10 10 10 10 11 12 12 11 11 10 10 9 9 10 11 12 12 10 9 9 9 11 12 11 8 8 8 7 8 8 8 8 7 7 7 6 7 9 12 13 14 15 16 19 21 22 23 25 27 29 26 24 29 34 36 39 39 40 43 43 41 38 38 41 41 41 46 48 46 48 48 46 44 41 39 40 42 42 39 35 35 35 34 32
11 10 10 10 10 10 9 9 10 11 11 11 11 10 10 9 9 10 11 13 13 12 10 9 10 11 10 9 9 9 9 8 8 8 8 8 9 8 7 7 7 9 11 13 14 14 16 18 20 21 22 25 26 27 25 23 28 33 35 39 40 39 42 44 42 39 39 42 43 42 45 47 49 50 50 48 46 41 38 38 40 42 41 38 36 35 35 35
12 11 11 11 10 10 10 9 9 9 10 10 10 11 10 10 11 11 12 14 14 13 12 13 13 11 10 9 10 10 10 9 8 7 7 8 10 9 8 7 7 8 10 12 12 13 15 17 18 20 21 23 24 25 24 22 26 31 32 36 38 38 43 44 41 41 41 42 44 43 43 46 48 50 50 50 50 46 43 41 38 38 39 39 38 37 35 34
11 11 11 11 11 11 10 10 9 9 9 8 9 9 10 10 11 12 14 15 13 13 14 14 13 11 9 9 9 10 10 10 9 7 7 8 11 11 9 8 7 8 9 11 12 12 14 15 16 18 18 20 22 22 23 23 25 29 31 33 37 41 44 43 39 39 40 42 44 42 43 47 49 49 49 50 50 49 48 46 40 38 39 39 39 37 36 35
11 11 11 10 11 11 10 10 10 9 9 8 8 7 9 11 11 13 13 13 12 12 11 11 11 9 7 6 7 10 11 10 9 8 8 9 11 13 11 9 7 7 8 10 11 12 13 14 14 16 17 20 21 22 23 24 25 28 31 34 38 42 42 42 40 39 40 41 42 40 43 47 49 49 49 48 49 48 47 45 43 42 41 40 40 39 37 35
10 10 10 10 10 10 10 10 10 10 9 9 8 8 10 11 13 13 13 11 11 12 11 11 10 8 7 5 6 8 11 12 10 8 9 10 12 13 11 9 8 7 8 9 10 11 12 13 13 16 19 20 22 24 25 25 24 27 30 32 37 40 41 43 43 42 42 42 42 41 43 46 47 48 47 46 46 46 45 44 43 43 43 43 42 42 40 37
10 10 10 10 10 10 10 10 10 10 10 10 8 8 10 10 11 11 11 11 10 11 12 11 11 9 6 6 6 7 11 13 11 8 11 12 12 12 11 10 9 8 8 8 10 11 12 13 13 16 20 21 23 25 25 26 24 25 28 30 34 38 39 41 43 44 45 43 44 43 42 44 46 47 47 46 46 46 46 45 43 43 44 45 44 43 42 40
9 9 9 9 10 10 10 10 10 10 10 10 8 9 9 9 9 8 10 12 11 9 11 11 10 8 7 6 6 8 11 13 12 10 11 13 12 12 11 10 9 8 8 8 10 11 12 13 14 17 20 20 22 24 26 26 24 25 27 28 32 36 36 37 40 44 45 45 46 45 44 46 46 47 48 47 47 47 46 45 44 44 44 44 45 45 45 44
9 9 9 9 9 10 10 10 10 10 10 10 9 10 9 8 8 7 10 13 12 10 10 10 9 8 7 7 7 7 9 11 12 10 10 13 13 12 12 11 10 8 8 8 9 10 12 13 14 17 19 19 21 23 25 25 24 25 27 28 31 34 34 35 40 42 44 47 46 46 48 49 47 47 48 47 47 47 46 45 46 46 45 45 45 47 47 45
9 9 9 8 9 9 10 10 10 10 9 10 11 11 10 9 7 8 12 17 14 11 11 11 12 11 9 9 8 7 8 9 10 10 10 12 13 13 12 11 11 9 9 8 9 10 11 12 14 16 18 18 19 23 24 23 23 24 27 29 30 34 35 37 40 41 44 46 43 44 48 49 49 48 46 47 48 47 46 44 46 47 47 46 46 48 48 46
9 9 9 9 9 9 9 10 10 10 9 11 12 11 10 9 9 10 15 21 18 13 12 12 13 14 13 13 12 8 9 9 8 9 12 12 12 13 13 12 11 10 10 9 9 11 11 11 14 16 18 19 18 20 22 22 22 25 28 30 32 36 38 39 40 41 44 43 41 44 46 49 51 46 44 47 47 47 46 44 45 47 48 47 46 47 47 46
10 10 10 9 9 9 10 10 10 10 10 11 11 11 10 10 10 11 16 24 20 13 13 13 13 15 16 17 16 11 9 9 8 10 13 13 13 13 14 13 11 10 10 10 11 12 11 11 13 16 18 19 18 19 21 21 21 25 30 32 34 38 39 40 40 41 41 41 44 48 47 46 46 43 44 46 45 46 46 44 45 45 46 47 47 46 46 45
10 10 10 11 10 10 10 10 10 10 10 11 10 11 10 9 11 14 20 25 21 14 14 15 14 14 16 18 18 14 10 9 9 10 12 14 14 13 13 13 11 11 10 11 12 11 11 11 12 14 17 18 18 19 21 20 20 25 31 33 35 37 38 40 41 41 41 43 48 50 48 47 45 43 45 44 42 43 43 43 43 43 44 44 44 44 44 44
10 10 10 11 11 10 10 10 10 10 11 11 11 10 10 10 12 18 24 24 17 14 14 14 13 13 14 18 19 16 11 9 10 12 13 15 16 15 14 12 11 11 10 10 12 11 11 11 11 14 16 17 17 19 22 20 19 25 31 33 35 37 38 39 40 41 42 44 46 45 45 47 44 43 44 41 40 40 39 40 40 39 41 42 42 42 41 42
11 10 10 10 10 10 10 10 9 10 11 11 11 11 10 13 16 24 30 24 16 15 14 13 13 13 14 18 20 18 14 11 11 13 15 16 16 15 14 12 11 11 11 10 10 11 10 11 12 13 15 17 18 20 21 20 19 24 30 33 34 38 40 43 43 41 44 49 43 37 40 42 41 40 40 37 36 36 35 38 38 36 37 38 40 40 39 41
12 11 11 10 10 10 11 10 9 10 10 11 11 11 12 16 21 28 30 21 15 15 14 14 15 14 15 18 20 19 16 13 12 14 17 17 18 17 16 14 12 12 12 11 10 11 10 11 13 13 14 17 20 21 22 20 19 24 31 34 35 38 40 42 43 41 47 52 42 33 37 40 38 36 35 32 30 32 33 34 35 34 33 34 37 38 38 39
13 12 11 11 10 11 10 10 9 10 11 11 11 12 14 18 22 26 24 18 15 16 16 17 17 16 17 19 19 18 17 16 14 15 19 19 19 19 17 16 13 12 14 13 12 12 11 10 12 13 13 17 20 22 22 20 19 24 32 35 36 39 37 39 45 46 48 47 37 32 37 40 36 30 29 30 29 29 31 31 30 30 30 32 36 37 36 37
15 14 13 11 11 10 10 10 11 11 11 11 11 15 19 22 23 21 17 16 15 15 16 18 17 17 18 19 18 15 16 18 17 17 21 21 20 19 17 16 13 11 14 14 12 12 12 10 11 12 13 16 19 20 21 21 19 23 31 34 35 38 36 40 48 48 45 42 35 33 37 39 34 28 26 27 26 27 28 28 28 28 29 32 36 37 36 37
16 15 14 12 11 10 10 10 11 11 12 11 12 17 21 23 24 21 15 13 14 14 16 17 17 16 17 19 18 16 18 21 18 17 21 22 22 21 19 17 14 11 13 14 12 11 12 12 11 11 13 15 17 17 19 21 20 21 28 32 34 36 35 37 41 40 39 39 36 36 41 39 30 26 25 25 25 25 25 26 28 29 29 31 34 36 36 37
17 16 15 13 12 11 12 13 13 13 12 11 14 18 18 18 19 20 17 15 15 15 16 16 16 16 16 19 20 19 20 22 20 19 20 22 23 22 20 19 17 14 14 13 13 12 11 12 12 11 11 12 15 16 17 21 20 20 25 28 28 30 31 32 35 37 37 38 38 39 41 38 28 23 25 27 27 25 24 26 27 27 28 30 33 35 35 35
18 17 16 15 13 13 15 15 16 17 14 12 15 16 14 14 16 17 18 16 15 16 17 17 18 18 18 20 22 23 22 23 23 21 22 22 22 23 21 20 18 17 16 14 14 14 12 12 11 9 10 11 13 16 16 18 20 20 23 24 23 25 29 32 33 36 36 36 38 38 36 33 29 26 25 27 26 24 24 25 26 26 28 30 32 34 34 34
20 19 18 17 16 17 16 15 17 19 15 13 15 16 14 13 15 16 17 16 15 17 19 20 20 19 19 20 23 25 25 25 24 23 25 25 23 23 23 22 21 19 19 17 15 14 13 13 11 9 8 9 10 13 15 16 19 20 20 20 22 26 30 33 34 37 40 38 37 36 33 31 32 31 28 25 24 24 25 27 27 27 29 30 31 32 33 33
23 20 20 21 21 19 18 17 20 19 15 13 15 18 17 14 13 15 14 14 15 17 20 21 21 20 20 19 22 27 28 27 26 24 26 26 24 23 23 23 23 21 21 21 20 17 14 13 13 11 9 8 8 9 12 13 15 17 18 19 24 29 32 32 33 36 39 41 41 37 34 34 32 31 28 24 23 25 27 29 30 30 30 30 30 31 32 33
24 22 23 27 25 21 20 21 21 18 15 14 14 16 18 15 13 13 13 14 15 16 18 20 20 19 20 19 21 29 32 30 28 26 27 27 25 24 24 26 26 24 23 23 22 22 18 15 14 13 11 9 8 8 9 11 13 14 17 21 24 27 30 30 32 34 35 42 45 37 34 35 32 28 25 22 24 26 27 30 31 30 30 29 29 30 32 34
26 25 26 28 26 24 22 22 22 17 15 16 15 15 17 16 14 13 13 13 14 14 16 18 18 18 19 18 19 28 35 33 29 29 29 28 27 26 26 27 28 28 28 26 24 24 22 18 15 14 13 11 10 9 7 9 11 13 16 20 21 22 26 28 31 34 34 41 46 40 36 36 31 28 26 22 23 26 27 29 30 29 29 27 27 30 33 35
29 30 30 31 29 27 25 24 23 21 19 21 20 17 17 15 14 13 13 13 14 14 15 16 17 16 18 18 17 25 35 35 31 31 30 29 28 28 28 27 28 30 32 32 28 25 24 22 17 14 14 13 12 10 8 7 10 12 14 17 18 18 22 26 30 34 33 35 40 38 34 32 29 29 27 22 23 26 26 27 27 27 27 26 26 29 33 35
33 31 28 29 29 28 29 30 29 28 28 28 24 20 19 17 15 14 13 14 15 15 15 15 16 16 16 18 17 21 31 36 34 32 31 30 29 28 29 28 29 32 34 33 29 26 27 27 21 16 14 13 12 11 11 9 8 11 14 15 16 17 21 26 29 32 32 32 35 33 30 29 30 32 28 24 25 27 27 27 26 26 26 26 26 27 32 34
39 34 26 28 30 29 31 35 36 35 33 31 27 24 21 19 18 16 14 16 16 15 16 15 15 16 16 18 19 19 25 34 36 34 31 31 30 28 28 30 32 35 37 33 29 30 31 29 23 19 16 13 13 14 14 12 11 11 13 15 15 15 19 24 27 28 29 31 32 31 31 31 33 36 32 29 29 27 26 27 25 24 26 28 28 28 30 33
42 39 31 31 33 33 34 35 37 40 37 32 29 27 23 21 20 19 17 17 17 18 18 17 16 16 16 18 18 17 21 29 36 36 33 31 30 28 29 33 37 40 39 34 30 31 32 30 25 21 19 16 15 16 15 14 13 12 12 14 14 14 16 21 26 26 28 31 31 30 31 30 31 34 31 30 30 28 26 26 25 24 26 28 29 29 30 31
46 44 38 36 36 35 35 34 35 40 41 37 33 29 25 23 21 20 19 20 22 25 24 21 19 18 18 18 20 19 19 23 31 36 36 33 31 30 31 36 41 43 39 34 32 31 31 31 27 23 23 21 18 17 16 15 16 15 13 13 13 14 15 20 26 26 27 30 28 27 28 26 26 26 24 25 28 27 27 27 25 25 26 28 29 30 31 31
51 50 45 42 40 38 38 37 37 41 44 43 41 35 30 27 23 21 22 25 28 28 26 24 23 22 22 22 23 23 20 19 25 34 37 36 34 34 34 37 41 41 38 34 33 34 35 33 28 25 22 18 16 16 18 17 15 14 13 12 14 14 14 21 27 26 27 28 26 26 26 22 21 21 19 22 25 25 27 28 27 26 26 27 29 30 31 31
53 53 49 48 46 44 45 46 46 48 47 46 46 41 36 33 30 27 28 31 31 29 27 26 24 24 26 25 26 25 22 20 23 29 34 37 38 38 36 38 43 42 40 38 34 34 36 33 30 29 24 17 13 13 15 16 13 13 13 12 13 14 15 19 23 22 24 26 24 27 27 20 18 19 19 21 24 25 28 29 27 26 26 26 28 28 29 30
54 54 52 52 52 50 51 54 55 55 52 49 48 44 39 38 37 35 34 33 31 30 29 28 26 25 27 27 28 28 26 24 25 28 33 38 40 40 37 40 43 43 43 43 37 33 33 32 31 32 27 21 16 13 14 16 13 13 15 14 14 16 17 19 20 20 23 23 19 23 26 20 17 19 20 22 25 26 27 28 27 27 27 27 28 28 28 28
53 54 52 52 53 51 50 52 55 57 54 51 50 47 44 43 42 40 37 35 35 34 32 33 33 31 31 31 31 31 29 28 26 28 35 39 39 39 40 43 44 44 45 45 41 36 33 32 32 30 28 25 21 18 17 17 16 15 15 16 17 19 21 21 20 21 23 21 18 21 25 21 18 19 20 22 25 25 26 27 27 27 28 28 29 28 28 28
54 55 55 56 56 53 50 48 48 49 48 49 51 49 45 45 46 44 42 40 40 38 36 39 40 38 38 38 36 32 32 30 27 27 35 41 41 40 43 45 46 46 46 45 44 40 35 35 36 31 29 29 25 23 21 19 20 19 16 18 19 21 23 22 21 23 24 22 22 23 25 23 20 22 23 23 25 26 27 28 28 27 27 28 28 28 28 28
57 57 57 58 57 54 51 48 45 45 44 45 47 45 43 45 47 48 47 44 41 41 42 43 43 42 42 44 43 38 35 33 30 27 32 39 42 43 43 45 47 48 50 47 45 43 38 39 40 34 31 31 28 27 25 20 21 22 20 20 21 21 23 21 21 24 24 23 25 27 26 23 21 24 26 25 25 26 27 28 28 27 28 28 29 28 28 29
58 58 57 58 57 52 50 48 45 44 43 41 42 42 42 44 46 49 50 47 42 42 44 45 46 48 48 51 51 46 41 37 32 29 29 34 41 43 43 45 47 49 52 51 47 46 43 40 41 41 38 33 28 27 27 25 24 25 24 22 22 22 23 21 21 24 25 24 26 25 23 22 24 26 26 26 27 27 27 27 27 27 27 28 28 28 29 30